Location: Central Falls
(41.8900°N, 71.3929°W)
Time: 04:22:12
(UTC+00:00)

Vanguard 2 - Pass Details

Date: 10 December 2023
Orbit: 554 x 2918 km, 32.9° (Epoch: 01 March)

Event Time Altitude Azimuth Distance (km) Brightness Sun altitude
Rises 20:40:58 0° 182° (S) 5,814 12.6 4.3°
Reaches altitude 10° 20:47:04 10° 163° (SSE) 5,216 12.0 3.4°
Maximum altitude 20:55:02 16° 132° (SE) 5,088 11.6 2.2°
Drops below altitude 10° 21:03:37 10° 102° (ESE) 5,744 11.6 0.9°
Sets 21:10:51 0° 85° (E) 6,715 11.8 -0.3°
